Location: Lamy Ridge Observatory
(35.5010°N, 105.8759°W)
Time: 01:43:17
(UTC-06:00)

ARIANE 6 FM1 Upper Stage - Visible Passes

Search period start: 19 May 2025 00:00
Search period end: 29 May 2025 00:00
Orbit: 533 x 609 km, 62.0° (Epoch: 18 May)

Date Brightness Start Highest point End Pass type
(mag) Time Alt. Az. Time Alt. Az. Time Alt. Az.
19 May 5.8 05:03:10 10° N 05:06:08 18° NE 05:09:06 10° E visible
19 May 2.7 20:38:57 10° SSW 20:42:49 51° ESE 20:46:42 10° NE visible
19 May 5.8 22:19:56 10° W 22:22:13 15° NW 22:24:30 10° N visible
20 May 5.2 05:04:31 10° N 05:08:06 27° NE 05:11:44 10° ESE visible
20 May 2.5 20:40:36 10° SSW 20:44:36 88° SE 20:48:37 10° NNE visible
21 May 4.2 05:06:03 10° NNW 05:10:01 41° NE 05:14:03 10° SE visible
21 May 3.4 20:42:30 10° SW 20:46:25 55° NW 20:50:22 10° NNE visible
22 May 3.2 05:07:43 10° NNW 05:11:53 66° NE 05:16:07 10° SE visible
22 May 4.6 20:44:38 10° WSW 20:48:18 34° NW 20:51:58 10° NNE visible
23 May 6.2 03:32:25 10° NNE 03:34:06 12° NE 03:35:49 10° ENE visible
23 May 2.6 05:09:31 10° NW 05:13:41 76° WSW 05:17:57 10° SSE visible
23 May 5.5 20:47:02 10° W 20:50:13 22° NW 20:53:25 10° N visible
24 May 5.6 03:33:16 10° N 03:36:07 18° NE 03:39:00 10° E visible
24 May 3.0 05:11:26 10° NW 05:15:27 45° WSW 05:19:32 10° SSE visible
24 May 5.9 20:49:49 10° W 20:52:12 15° NW 20:54:36 10° N visible
25 May 5.0 03:34:34 10° N 03:38:05 26° NE 03:41:39 10° ESE visible
25 May 3.6 05:13:34 10° WNW 05:17:09 28° WSW 05:20:49 10° S visible
25 May 6.4 20:53:36 10° NW 20:54:14 10° NW 20:54:52 10° NNW visible
26 May 4.1 03:36:03 10° NNW 03:39:58 39° NE 03:43:58 10° ESE visible
26 May 4.2 05:16:01 10° WNW 05:18:49 17° WSW 05:21:39 10° SSW visible
27 May 3.1 03:37:40 10° NNW 03:41:49 63° NE 03:46:02 10° SE visible
27 May 4.6 05:19:37 10° W 05:20:27 10° WSW 05:21:16 10° WSW visible
28 May 5.8 02:02:31 10° NNE 02:03:59 12° NE 02:05:28 10° ENE visible
28 May 2.5 03:39:25 10° NW 03:43:36 80° WSW 03:45:03 40° SSE visible
